This is the latest recevied weather packets stored in our database for station/object IZ1UQG-1. If no packets are shown the sender has not sent any weather packets the latest 10 day(s).
| Time | Temp. | Humidity | Pressure | Rain* | Wind** | Luminosity | Snow |
|---|---|---|---|---|---|---|---|
| 1777245253 | 18.89° C | 49% | 1017.6 hPa | 58.67 mm | - | - | - |
| 1777244953 | 18.89° C | 49% | 1017.5 hPa | 32.26 mm | - | - | - |
| 1777244653 | 19.44° C | 49% | 1017.5 hPa | 14.22 mm | - | - | - |
| 1777244353 | 19.44° C | 49% | 1017.3 hPa | 238.25 mm | - | - | - |
| 1777244053 | 19.44° C | 49% | 1017.5 hPa | 54.61 mm | - | - | - |
| 1777243753 | 19.44° C | 49% | 1017.4 hPa | 43.69 mm | - | - | - |
| 1777243453 | 19.44° C | 48% | 1017.2 hPa | 8.89 mm | - | - | - |
| 1777243153 | 19.44° C | 48% | 1017.4 hPa | 10.67 mm | - | - | - |
| 1777242853 | 19.44° C | 48% | 1017.2 hPa | 53.09 mm | - | - | - |
| 1777242553 | 19.44° C | 48% | 1017.2 hPa | 66.55 mm | - | - | - |
| 1777242253 | 19.44° C | 48% | 1017.2 hPa | 55.12 mm | - | - | - |
| 1777241953 | 20° C | 48% | 1017.2 hPa | 42.67 mm | - | - | - |
| 1777241653 | 20° C | 47% | 1017.1 hPa | 50.55 mm | - | - | - |
| 1777241353 | 20° C | 47% | 1017.1 hPa | 53.09 mm | - | - | - |
| 1777241054 | 20° C | 47% | 1017.2 hPa | 68.07 mm | - | - | - |
| 1777240753 | 20° C | 47% | 1017.1 hPa | 246.89 mm | - | - | - |
| 1777240453 | 20° C | 47% | 1016.9 hPa | 41.66 mm | - | - | - |
| 1777240153 | 20° C | 46% | 1017 hPa | 47.75 mm | - | - | - |
| 1777239854 | 20.56° C | 46% | 1017 hPa | 59.69 mm | - | - | - |
| 1777239553 | 20.56° C | 46% | 1016.8 hPa | 18.29 mm | - | - | - |
| 1777239253 | 20.56° C | 46% | 1017 hPa | 15.24 mm | - | - | - |
| 1777238954 | 20.56° C | 46% | 1017 hPa | 4.83 mm | - | - | - |
| 1777238654 | 20.56° C | 45% | 1016.9 hPa | 2.29 mm | - | - | - |
| 1777238354 | 20.56° C | 45% | 1017.1 hPa | 240.28 mm | - | - | - |
| 1777238054 | 20.56° C | 45% | 1016.8 hPa | 11.18 mm | - | - | - |
* Rain latest hour (hover to see other rain measurements)
** Current wind speed in m/s (hover to see current wind gust speed)